Weather in Kletskaya

Russia / Volgograd Oblast     49°18′52″N   43°03′39″E
temp.,
°C
wind,
m/s
gust,
m/s
humid.,
%
clouds,
%
prec.,
mm/h
press.,
hPa
HPBL,
m
21 june, mon
mon2100:00+21e4124269 0.0 1018186
03:00+19e464539 0.0 101990
06:00+20ese4105265 0.0 1019193
09:00+27ese610345 0.0 1019661
12:00+31ese79244 0.0 10181640
15:00+33ese79215 0.0 10182344
18:00+30e59333 0.0 1017335
21:00+24ene49463 0.0 1018138
22 june, tue
tue2200:00+23e61555100 0.0 1018295
03:00+22e51356100 0.0 1018233
06:00+23e5125928 0.0 1018258
09:00+29e610435 0.0 1018517
12:00+34e792689 0.0 10172329
15:00+33ene6830100 0.0 10161203
18:00+32e593698 0.0 1015245
21:00+27e616428 0.0 1016339
23 june, wed
wed2300:00+26e6163733 0.0 1017333
03:00+24e4113892 0.0 1017207
06:00+23e3749100 0.0 1017147
09:00+30e5835100 0.0 1017409
12:00+32e5632100 0.0 10171021
15:00+33e782593 0.0 10161055
18:00+31ne593494 0.0 1016323
21:00+26ene4105124 0.0 1017157
24 june, thu
thu2400:00+24ene34510 0.0 101648
03:00+23ese22485 0.0 101617
06:00+25ne1146100 0.0 101728
09:00+30ene2332100 0.0 1017422
12:00+33ese4524100 0.0 10161333
15:00+34e5621100 0.0 10152465
18:00+32ene353236 0.0 1015111
21:00+27ne333087 0.0 101421
25 june, fri
fri2500:00+24ne344791 0.0 101450
03:00+22e346199 0.0 101453
06:00+24ne4760100 0.0 1014158
09:00+30ese343998 0.0 1014558
12:00+33sse342399 0.0 10131372
15:00+35e341997 0.0 10122485
18:00+33ne4631100 0.0 1012156
21:00+29ne473799 0.0 101198